GFSSW_sfc_rhum_132.txt.gz
RH
82 82 83 83 84 84 85 85 84 86 87 87 88 91 92 92 88 73 16 16 23 71 57 57 34 32 34 35 36 44 38 39 38 39 30 37 35 33 41 48 44 52 63 62 69
82 82 82 82 83 85 87 87 85 87 89 90 91 91 92 90 68 33 34 55 74 74 22 23 32 34 28 30 27 32 39 31 29 28 24 26 31 34 47 47 63 66 63 68 76
82 82 81 81 81 83 86 87 86 86 89 91 91 91 90 90 53 19 58 62 69 69 16 17 17 19 24 24 23 34 27 24 19 21 13 29 33 36 47 52 58 72 74 73 84
82 82 82 81 82 82 82 83 84 88 90 93 92 89 89 82 26 27 70 65 77 36 13 13 18 26 25 21 18 20 18 18 16 13 21 31 34 42 44 44 45 61 66 73 85
82 82 82 82 82 82 83 83 85 87 92 93 90 88 86 32 12 54 71 74 33 17 12 18 26 28 26 19 15 18 17 19 15 10 18 23 38 39 41 49 54 59 64 76 80
82 83 83 82 83 85 86 85 86 87 92 88 88 89 68 34 34 52 40 21 19 15 15 22 24 24 24 17 17 16 21 20 13 12 15 21 24 34 50 52 58 61 68 72 75
84 85 85 83 82 83 85 85 86 87 89 87 87 76 55 19 33 33 21 19 17 15 15 19 24 23 20 19 15 23 19 15 13 12 16 26 31 40 49 52 61 63 66 68 71
84 86 86 85 84 84 85 86 88 86 88 87 85 81 24 28 31 20 20 16 17 21 17 19 22 23 19 17 19 20 20 18 14 12 14 22 35 54 49 53 63 66 66 68 71
87 86 86 86 86 87 88 89 84 86 84 85 86 73 32 41 23 23 16 13 15 15 16 10 17 21 20 24 24 22 22 24 15 13 17 27 42 47 48 52 58 57 63 66 73
86 86 86 86 87 88 88 88 89 89 82 69 54 48 33 24 25 19 21 16 17 18 20 19 20 20 22 25 23 24 23 21 19 14 20 37 41 44 48 50 54 57 57 59 67
85 85 85 86 86 86 92 85 32 35 69 16 15 24 22 19 16 18 18 18 18 17 23 22 22 23 19 20 20 22 24 22 16 15 25 42 42 50 52 51 57 56 59 58 58
84 85 85 86 85 88 91 38 28 29 31 24 28 25 23 21 17 16 13 16 21 21 22 21 24 19 19 18 20 23 23 23 19 16 21 46 47 56 60 53 56 58 68 63 78
83 84 85 86 87 77 39 32 31 31 34 22 27 25 20 19 18 14 14 16 19 21 19 19 15 15 17 18 18 21 21 21 18 20 22 33 42 66 56 58 63 64 68 71 75
83 84 84 86 42 52 32 38 26 31 34 22 24 16 16 17 17 10 13 13 20 18 19 19 16 16 17 17 15 44 15 15 17 19 24 28 54 36 58 63 62 64 67 72 75
82 82 84 85 82 34 26 32 30 23 33 19 21 14 16 12 13 12 13 14 17 16 16 14 16 18 17 15 14 17 16 20 19 22 25 25 24 31 56 64 61 63 66 69 73
82 82 84 87 94 62 41 32 26 30 34 23 15 16 15 16 13 13 14 13 14 16 17 15 14 14 14 15 16 17 19 26 36 32 31 30 27 30 59 49 57 60 63 67 67
82 83 88 69 17 42 40 30 36 40 20 21 15 16 20 17 16 13 16 16 16 18 20 15 16 14 14 16 19 19 27 34 30 39 36 38 35 31 29 39 49 55 60 64 63
82 87 86 79 78 47 34 34 55 24 26 18 13 17 16 15 15 14 15 19 18 17 22 19 18 16 15 14 17 27 24 33 43 38 32 38 44 36 35 35 46 49 54 58 60
86 88 80 75 73 57 35 46 34 32 23 15 16 17 18 15 14 16 16 17 15 14 16 20 20 17 17 17 17 27 28 28 37 47 38 35 39 36 46 54 53 53 58 59 59
98 93 54 57 60 39 35 45 37 30 18 18 20 17 18 14 14 16 16 13 13 13 15 18 32 27 16 18 20 20 22 27 36 42 48 37 44 46 53 58 59 53 59 63 62
68 27 29 56 48 34 34 33 29 22 18 20 24 23 19 19 14 17 15 14 13 15 15 23 28 22 22 24 22 24 30 38 35 37 38 47 39 41 45 52 56 57 59 62 64
66 15 31 35 38 57 42 34 33 21 18 16 20 19 19 18 23 22 18 16 20 16 15 27 26 31 22 24 25 29 28 33 40 40 50 44 37 34 41 45 50 56 63 65 64
76 67 49 30 39 42 41 25 22 20 17 19 20 18 19 17 19 21 23 22 22 19 21 24 31 34 30 26 26 30 35 41 44 48 52 47 39 36 48 46 55 64 63 67 74
84 73 59 53 61 48 51 32 26 22 16 20 21 24 27 28 28 23 27 22 23 35 60 41 40 28 24 30 28 29 29 38 41 48 47 46 40 37 55 59 66 65 65 73 76
96 90 79 67 58 67 61 43 44 31 26 26 25 26 23 34 37 37 37 30 24 43 32 26 33 54 39 30 24 24 25 27 30 34 33 37 39 29 35 58 65 62 71 74 78
93 92 83 74 76 61 59 52 40 35 36 27 33 38 27 28 25 32 32 50 34 30 34 33 39 47 41 37 29 29 29 28 30 31 37 35 31 30 38 70 68 65 67 73 77
89 88 85 71 69 59 63 50 40 44 33 36 39 41 38 38 36 46 46 37 53 36 35 38 41 39 48 46 40 38 34 32 32 30 28 36 31 49 64 68 65 69 69 70 76

GFSSW_sfc_rhum_138.txt.gz
RH
80 80 81 82 84 84 84 84 84 84 85 84 85 85 86 90 90 38 10 16 17 69 64 14 12 12 13 14 15 14 9 11 10 11 14 18 17 19 21 29 36 32 25 35 37
81 80 80 80 82 84 86 85 84 85 86 85 85 86 88 88 30 11 31 54 67 72 15 12 11 12 12 10 10 9 9 10 8 9 10 16 15 18 21 31 38 34 33 38 39
81 81 80 80 80 82 85 85 84 85 87 86 85 86 88 68 16 6 55 58 74 61 7 7 10 10 10 8 8 9 9 8 7 7 9 13 16 16 18 22 30 36 42 42 42
81 80 80 81 81 81 81 82 84 86 87 86 85 86 85 35 12 19 60 68 73 14 6 6 10 11 9 9 8 8 8 8 6 6 8 13 14 18 20 22 24 30 36 39 40
80 81 81 81 81 82 82 83 84 86 87 89 88 86 52 14 10 25 67 63 17 7 5 5 9 10 9 8 8 8 8 8 6 6 8 13 15 19 27 25 27 31 36 36 35
81 82 83 82 83 83 84 84 86 87 86 87 85 84 28 12 19 20 12 12 7 6 5 7 10 9 8 8 8 8 9 8 5 9 12 12 18 18 31 29 33 34 34 32 32
83 85 85 83 82 83 84 84 88 90 86 84 84 50 19 13 16 11 7 6 6 5 5 10 10 9 9 9 8 9 9 7 6 7 12 12 18 24 29 30 35 34 33 32 33
85 85 86 85 84 83 84 86 91 83 84 84 83 35 10 15 14 9 8 8 7 6 4 9 10 9 9 9 9 9 9 8 6 7 11 11 18 26 27 28 33 34 34 36 35
85 85 86 86 86 86 86 87 88 82 82 81 46 26 12 29 14 8 7 7 7 6 8 8 9 9 9 9 9 9 8 8 8 6 9 11 14 27 25 26 31 34 36 36 37
84 85 86 86 86 86 87 88 85 82 60 41 29 24 17 14 12 8 7 6 5 7 9 10 8 8 8 9 9 9 8 8 8 7 8 9 10 24 24 26 29 29 33 35 35
84 85 85 86 86 86 66 37 29 28 27 12 6 11 13 12 9 7 7 7 5 8 9 10 8 9 8 8 9 9 9 10 8 7 8 8 9 20 24 22 28 28 32 31 32
84 85 85 85 84 88 50 19 16 14 15 12 12 11 11 10 11 9 8 9 9 9 8 10 8 6 8 8 10 10 11 10 9 8 8 8 10 15 22 21 22 24 27 27 30
84 85 85 86 86 61 12 10 14 11 16 12 11 9 10 10 9 11 10 9 9 9 9 8 8 9 10 10 10 10 9 10 9 10 9 11 12 21 21 21 20 19 21 22 25
84 84 85 86 49 16 10 17 9 11 15 12 11 10 10 8 10 8 8 8 9 10 9 10 8 9 9 9 8 10 8 8 9 10 10 11 11 15 14 24 24 22 23 20 24
84 84 85 86 31 13 14 8 12 14 16 9 10 8 8 9 8 10 8 9 10 10 11 10 9 9 10 8 7 10 8 8 9 9 10 13 11 15 14 18 19 21 22 20 21
84 84 85 42 34 17 11 9 15 18 18 12 9 10 11 8 8 9 10 8 8 10 10 8 7 7 7 8 7 9 11 11 10 8 12 11 12 10 11 16 12 14 22 21 23
83 84 80 33 9 13 12 16 19 20 11 12 10 8 9 10 8 9 11 12 11 15 14 9 8 7 8 9 9 9 9 13 14 12 12 13 11 11 10 12 16 15 20 23 25
84 88 59 32 21 19 10 20 26 13 11 10 8 8 10 9 8 9 11 12 10 9 9 11 11 8 8 8 10 10 8 11 21 14 13 16 14 14 15 13 16 18 18 25 27
87 19 22 21 26 22 9 22 20 14 10 11 9 10 10 9 9 9 10 10 9 9 12 11 10 7 7 8 8 11 12 8 12 13 12 11 13 11 14 16 20 19 21 26 29
45 22 11 18 25 16 11 21 14 11 12 10 12 10 11 10 11 10 10 9 8 8 7 10 12 7 10 8 10 10 8 11 11 20 21 14 17 12 14 14 24 24 25 27 31
38 14 20 22 18 12 10 10 11 11 12 11 11 12 10 10 10 10 10 8 7 8 7 7 10 12 12 11 9 12 11 11 9 13 14 16 13 12 14 14 18 23 25 28 32
33 14 21 21 14 7 7 8 23 9 10 10 9 11 11 9 10 10 10 9 6 6 9 8 8 14 10 11 11 8 10 11 13 24 14 16 13 9 13 15 18 16 24 27 29
32 18 21 22 14 8 8 6 11 8 8 9 10 10 10 12 14 9 9 7 6 7 9 9 10 13 16 12 13 12 11 11 11 15 20 18 14 15 17 18 19 22 25 30 32
40 25 21 20 18 21 9 11 9 7 7 8 8 10 12 13 13 13 9 12 9 7 44 21 9 14 11 13 9 14 11 12 12 15 15 14 16 17 16 18 19 25 28 32 36
36 28 41 23 19 20 22 14 10 9 10 10 9 9 12 16 13 14 10 15 14 39 15 11 19 14 10 8 8 9 10 11 14 12 14 13 13 15 18 17 16 17 29 34 40
39 41 32 33 35 33 35 21 15 9 14 12 14 7 8 16 14 14 14 15 17 18 17 13 22 20 13 12 10 10 9 9 12 11 12 13 16 14 16 16 17 19 24 33 40
32 36 43 39 30 28 20 20 18 20 17 18 18 18 14 12 18 15 12 12 14 18 21 20 24 26 18 16 16 18 13 13 14 13 14 18 16 16 15 17 20 20 20 23 27

GFSSW_sfc_rhum_141.txt.gz
RH
80 80 82 83 84 84 83 83 83 84 84 85 83 84 84 87 90 36 10 18 18 68 62 10 10 10 10 11 9 8 9 8 8 11 12 9 11 13 16 22 21 18 25 29 30
80 81 81 82 82 84 85 84 83 84 85 86 84 84 85 88 29 12 31 58 72 70 16 8 7 6 9 9 8 8 8 7 6 7 10 10 11 13 16 22 22 22 26 29 30
80 82 82 80 81 82 85 85 84 84 85 86 84 83 86 67 19 6 59 62 66 54 9 6 5 6 10 7 7 7 7 5 5 7 8 10 13 11 14 21 22 29 31 30 31
79 80 80 81 81 81 81 82 83 85 86 86 85 83 85 37 14 16 59 63 70 18 9 5 6 8 9 8 7 8 6 5 5 6 8 10 10 11 13 17 18 24 27 30 31
80 81 81 82 82 82 82 82 84 86 87 86 85 84 56 17 11 25 64 54 13 15 5 4 6 8 9 7 7 7 6 5 4 5 8 9 11 15 19 18 20 23 27 28 27
82 83 83 83 83 84 85 84 85 89 88 85 83 81 29 13 12 17 9 8 7 7 4 3 5 8 8 7 7 6 6 5 4 6 8 10 12 15 22 21 23 25 26 25 25
84 85 86 84 82 84 84 84 86 91 87 84 82 44 17 12 10 8 7 6 4 4 4 3 7 8 7 8 7 6 7 5 5 6 9 9 13 18 22 22 25 25 24 24 25
85 85 85 86 85 84 84 84 86 83 82 81 80 30 13 9 9 5 4 4 4 4 3 5 7 8 8 7 7 7 6 6 5 6 7 10 19 19 20 23 26 25 24 25 26
84 85 85 85 86 87 86 87 87 81 79 78 45 22 10 25 11 5 4 4 4 4 4 6 7 8 8 9 8 7 7 7 6 6 7 10 17 16 16 20 24 26 26 26 27
84 84 85 86 86 86 86 87 81 77 60 30 20 18 14 12 9 6 5 4 5 5 6 8 7 9 8 8 9 7 7 6 7 6 6 8 14 15 15 17 21 24 27 27 28
84 84 85 86 86 85 63 30 32 30 21 12 8 7 9 8 7 6 5 5 4 5 7 7 7 8 8 7 6 7 6 6 6 5 6 8 13 14 15 15 17 20 24 25 28
83 84 85 85 85 86 56 18 12 10 13 10 9 5 9 8 8 6 5 5 5 6 6 8 8 6 6 6 7 8 7 7 6 6 6 7 8 12 14 15 16 16 20 21 24
84 84 85 86 84 56 13 8 8 9 12 8 8 7 8 8 7 6 4 5 5 6 6 8 5 5 5 7 7 7 8 8 8 7 6 7 9 11 13 12 15 14 17 18 22
84 84 84 85 52 11 7 10 10 8 14 8 9 7 6 8 8 5 4 6 7 7 7 7 6 7 7 7 7 8 6 7 7 8 9 7 11 12 11 14 13 15 15 16 19
84 83 84 88 31 8 8 8 7 11 17 6 7 4 5 9 6 7 5 6 8 7 7 7 8 8 8 7 6 8 6 7 7 8 8 10 10 10 11 15 14 13 15 14 16
84 83 83 26 31 14 7 6 10 18 16 8 7 7 7 8 6 6 7 6 6 7 7 7 6 6 6 6 6 7 8 8 8 7 10 9 9 10 11 12 11 12 13 15 15
84 82 76 32 9 6 6 9 18 18 7 8 8 6 6 8 7 8 10 10 10 13 12 9 7 6 5 7 6 7 8 12 13 11 10 9 10 10 7 8 9 10 12 15 15
83 84 51 31 12 10 9 13 26 12 9 6 6 6 7 7 7 8 9 10 9 8 8 10 10 6 6 7 8 8 7 10 20 13 12 12 13 9 9 9 9 10 11 12 16
84 16 11 12 16 11 10 14 18 12 7 7 7 7 7 6 6 8 9 8 8 8 10 9 9 5 6 6 6 9 10 6 9 10 11 10 11 9 8 9 11 13 13 12 16
48 20 10 9 14 13 10 14 11 9 7 7 9 8 9 7 7 8 9 7 7 6 6 8 11 6 6 6 6 8 7 9 9 19 19 11 13 12 14 12 14 14 17 17 19
40 14 10 10 14 10 8 8 6 6 8 10 9 9 8 7 7 8 8 6 6 6 6 6 8 9 7 9 8 8 10 9 7 10 13 14 12 12 13 11 12 12 15 18 21
21 15 14 13 15 7 7 6 12 5 8 9 10 9 10 7 8 9 8 7 5 6 8 7 7 11 9 7 6 6 8 8 11 18 12 11 12 8 10 10 11 11 13 15 18
25 14 10 15 14 7 6 5 4 5 7 8 9 9 9 11 12 8 8 5 5 6 8 8 9 11 12 8 7 9 8 8 9 11 17 16 13 10 11 11 12 12 13 17 20
26 18 10 17 14 12 10 7 6 4 7 6 8 8 9 12 10 11 8 6 5 5 39 15 9 13 10 13 9 12 9 8 10 13 13 13 13 16 14 14 13 15 16 19 24
26 18 23 19 15 11 13 10 7 7 7 7 8 8 10 15 12 12 9 8 6 28 10 8 14 11 8 7 8 8 8 8 10 11 13 12 11 12 18 16 14 14 17 22 26
27 26 22 24 25 25 19 16 10 6 7 8 9 7 8 13 13 13 10 11 12 9 10 8 16 13 11 7 7 8 8 8 8 8 10 9 11 12 15 15 14 14 16 18 23
22 22 26 28 17 21 20 17 13 10 7 6 8 9 8 8 8 11 9 8 10 13 15 13 13 18 18 11 10 13 10 8 8 8 9 12 12 10 16 16 16 16 16 17 17

GFSSW_sfc_rhum_144.txt.gz
RH
80 81 82 83 82 82 84 85 83 84 85 85 86 84 85 86 90 40 12 18 20 63 50 13 12 11 8 11 9 8 12 8 9 13 12 10 13 13 14 17 20 24 27 40 38
80 82 83 82 83 83 85 86 84 84 85 86 86 85 84 86 38 17 25 63 69 71 12 11 7 6 7 8 8 8 9 6 6 10 12 11 13 13 15 17 24 27 29 27 31
81 82 82 81 81 83 84 84 86 84 86 86 86 85 84 74 24 8 51 63 69 52 8 7 5 6 8 9 7 8 7 5 6 8 9 11 17 14 17 21 25 33 33 30 30
81 80 80 80 81 81 82 82 83 84 86 87 86 87 81 41 19 12 56 64 70 11 8 10 6 7 9 9 7 8 5 5 6 8 9 13 14 15 18 19 21 26 28 29 30
82 82 82 82 82 82 82 83 84 85 88 88 86 83 59 21 12 20 63 49 8 8 9 8 5 7 10 7 7 7 5 5 4 7 9 10 13 14 17 18 21 24 27 28 28
84 85 86 85 84 85 86 86 86 86 89 88 84 81 31 20 11 16 8 6 4 6 9 4 4 6 9 7 7 6 5 5 4 7 9 12 14 17 19 20 23 25 27 26 26
84 85 85 86 85 85 86 86 84 85 86 84 82 48 22 13 9 10 6 4 4 6 6 4 3 6 8 7 6 5 6 4 6 7 9 9 25 20 20 20 24 25 26 25 26
83 84 85 86 86 86 86 87 84 85 84 80 80 33 21 8 9 6 6 4 4 4 3 3 4 8 8 7 6 7 7 6 6 7 8 16 60 20 19 22 24 24 24 25 26
83 84 85 85 86 87 87 86 84 84 81 75 51 30 14 20 10 5 4 4 4 4 4 3 6 9 9 9 8 7 9 7 6 6 8 14 20 19 18 21 24 24 24 25 26
83 84 84 85 86 86 85 86 74 78 64 32 24 22 14 12 8 5 3 3 4 4 5 6 8 10 10 9 12 9 8 7 8 6 7 12 18 22 18 19 23 23 24 25 27
84 84 84 84 85 86 62 23 35 32 24 15 10 10 9 8 7 5 4 4 4 5 6 8 7 10 9 8 8 7 6 8 6 5 7 14 20 18 15 17 20 24 26 26 27
85 84 84 84 85 82 64 15 12 10 13 14 12 8 6 7 9 6 4 6 6 6 6 7 8 6 6 7 7 7 8 7 6 6 6 14 16 14 13 15 17 21 24 24 25
86 86 85 85 83 56 17 12 6 7 13 9 8 8 6 8 8 6 5 5 5 6 6 7 6 5 5 6 7 7 8 7 7 6 5 7 10 15 13 12 18 46 20 20 25
86 86 85 87 42 16 10 8 7 8 15 9 8 7 5 8 8 5 5 4 5 5 5 6 5 5 5 6 6 8 6 6 7 8 9 7 11 19 15 14 21 27 18 18 23
86 86 85 85 38 16 6 5 7 10 21 5 5 5 6 7 7 7 4 4 7 5 5 7 6 6 6 6 5 7 6 7 7 8 9 9 9 13 11 16 15 16 17 17 21
86 85 84 29 37 23 11 7 8 18 19 7 5 7 7 6 7 6 5 4 5 7 6 6 5 6 6 5 5 6 7 8 7 8 12 11 11 11 11 14 15 12 16 17 20
85 83 76 40 14 7 7 6 16 21 9 7 8 6 6 7 8 7 8 8 9 12 11 8 6 6 5 6 6 6 9 14 14 12 12 8 9 15 11 11 12 13 13 17 19
85 85 54 28 19 17 10 12 24 13 11 5 6 7 7 6 8 7 9 10 8 8 9 10 11 7 6 6 8 7 8 12 24 16 12 10 12 10 9 9 9 9 10 12 21
84 24 13 16 18 13 11 14 18 13 8 7 6 8 8 6 7 7 9 10 8 8 12 10 10 6 5 5 6 9 10 6 10 10 13 13 12 11 10 9 8 10 11 10 12
57 30 18 8 10 13 13 17 10 8 8 8 9 8 9 7 7 7 9 8 8 6 7 9 12 6 5 5 6 7 7 10 10 23 22 12 16 13 17 13 13 13 13 14 14
48 21 8 6 10 13 12 10 8 5 6 9 10 9 8 7 6 7 8 7 6 6 6 7 9 9 7 8 8 8 9 9 8 10 14 16 23 18 19 15 14 12 14 16 16
26 18 8 9 18 14 10 8 12 6 5 6 9 9 9 8 8 7 7 7 5 6 8 7 7 12 8 6 6 6 8 10 14 23 14 16 22 9 11 11 11 12 16 14 16
35 18 10 12 19 14 10 6 5 5 6 6 9 10 9 11 14 8 6 5 5 6 8 8 10 12 12 8 7 8 8 8 9 11 21 17 16 11 12 12 13 14 16 21 17
34 20 13 12 15 16 13 9 7 4 5 5 7 8 10 11 11 13 7 5 5 5 32 16 9 16 11 13 9 12 8 8 9 14 14 12 20 17 15 15 16 17 18 19 28
34 21 15 20 14 17 15 14 11 7 5 5 7 8 10 13 11 12 10 8 6 24 11 8 19 12 8 8 8 8 8 8 10 11 14 13 12 17 22 18 18 19 23 20 22
36 27 22 26 26 27 30 16 13 10 6 6 8 8 8 12 12 12 11 12 10 9 8 7 19 15 12 8 8 9 8 8 8 8 10 10 12 19 19 17 18 18 18 21 25
32 27 30 36 23 20 20 18 10 11 10 6 6 8 9 8 7 8 9 9 9 11 14 13 15 21 19 10 9 12 10 8 9 9 8 13 15 18 20 20 20 18 16 17 18

GFSSW_sfc_rhum_147.txt.gz
RH
80 81 82 84 85 85 85 84 84 84 85 86 87 89 89 90 90 58 25 18 23 60 63 10 13 15 16 17 12 14 22 21 16 17 19 16 18 17 25 37 38 44 54 55 52
80 81 81 81 83 85 86 87 86 85 85 87 88 89 89 89 53 30 30 55 68 73 11 11 13 11 11 10 10 15 15 12 14 13 16 17 19 20 28 34 54 53 50 48 50
80 81 81 80 81 83 85 86 87 86 86 88 88 88 90 83 46 17 46 53 72 61 10 8 9 12 9 9 9 13 10 8 12 13 16 19 16 19 29 41 48 61 54 49 53
79 80 80 80 81 81 82 84 85 85 86 88 88 88 87 64 33 15 71 60 69 19 9 9 14 13 11 12 10 10 6 7 10 16 16 19 18 20 28 35 33 41 44 44 48
80 80 80 81 81 82 82 83 86 86 86 88 88 87 83 44 23 25 64 63 21 9 8 10 15 11 10 11 10 10 6 7 9 13 15 15 21 24 29 32 32 32 34 44 45
83 84 84 84 84 85 85 87 87 86 86 90 86 84 60 32 16 22 17 16 7 7 9 9 11 6 8 9 11 8 6 6 8 12 16 22 22 25 29 29 32 33 36 36 39
84 84 84 84 83 85 86 86 85 84 85 86 83 60 34 18 17 17 11 8 7 6 10 10 8 6 6 12 9 8 11 7 7 12 22 24 38 30 28 28 32 33 34 34 36
84 84 84 85 85 85 86 86 83 82 85 82 80 55 40 12 13 12 10 7 5 6 7 8 6 6 12 12 11 10 12 11 9 10 26 29 51 25 27 30 34 32 31 33 37
84 85 85 85 85 85 87 85 82 82 84 77 82 69 28 22 14 9 8 6 5 6 7 5 5 10 13 17 19 13 15 12 10 11 26 32 48 30 26 29 33 32 32 33 37
85 86 86 85 85 86 87 81 70 78 79 46 36 40 27 16 11 8 7 5 6 6 6 8 12 15 17 21 25 16 13 12 11 11 17 28 34 29 26 28 30 31 33 34 36
85 85 86 86 86 86 82 47 54 51 37 32 23 24 11 12 9 7 5 5 6 8 11 9 17 19 16 14 13 12 11 10 10 8 13 24 30 33 28 28 30 32 35 37 35
84 85 85 86 86 83 85 43 17 13 18 22 22 15 10 10 12 7 5 7 8 10 9 12 15 11 9 10 11 11 12 12 9 8 15 23 26 30 31 27 28 30 33 34 36
84 85 86 86 84 76 35 22 14 15 17 14 11 15 16 10 11 9 6 7 8 10 9 11 10 7 8 8 9 11 13 12 11 10 10 23 33 27 26 24 27 30 29 29 33
84 84 86 86 55 32 17 11 8 12 28 16 11 10 10 10 13 7 6 7 8 8 8 8 6 7 7 8 8 14 9 8 9 13 16 12 25 31 22 44 33 33 34 30 31
83 84 86 85 70 45 15 14 13 14 40 10 9 7 9 10 12 10 5 7 8 7 8 9 7 7 8 7 8 10 9 9 10 15 15 16 17 25 22 45 37 42 35 34 30
83 84 83 55 62 46 27 18 22 31 36 10 6 8 11 9 9 9 7 7 6 7 8 6 6 6 8 7 8 7 8 11 14 15 22 17 18 17 24 28 32 32 31 28 30
82 82 84 56 38 14 19 19 26 34 14 11 8 8 11 11 8 9 9 10 10 12 13 11 8 7 6 11 8 9 27 28 28 24 26 17 22 19 18 19 25 27 28 24 27
82 84 74 47 53 42 31 28 36 18 16 10 8 9 11 10 9 9 10 11 8 8 17 19 16 9 8 9 12 13 16 28 34 28 17 14 20 23 19 17 17 18 20 22 27
82 47 30 24 35 27 34 26 24 19 11 10 10 11 11 9 9 10 11 10 8 8 16 18 16 9 8 7 8 15 14 15 20 19 21 20 20 18 16 14 14 17 31 29 36
83 59 38 18 22 28 33 32 15 11 10 10 14 13 17 9 9 10 11 10 10 8 9 16 24 11 8 8 8 11 14 22 23 34 34 24 28 29 24 19 21 19 18 41 41
75 41 18 16 20 26 25 22 13 9 8 10 12 12 13 14 9 9 11 9 9 9 8 9 17 14 10 11 11 12 20 25 17 24 26 33 30 31 27 27 22 21 24 24 27
49 40 16 14 28 28 26 15 20 8 7 8 9 9 10 12 14 9 9 10 7 9 11 9 16 18 15 11 7 10 12 19 34 30 32 35 35 18 23 23 22 25 24 26 25
66 39 20 15 25 26 23 16 10 8 8 7 8 8 8 11 25 24 16 8 7 8 10 11 12 17 16 16 9 10 10 17 25 30 27 36 34 21 19 18 25 27 26 23 24
62 41 28 27 21 24 25 22 16 9 8 6 7 7 9 13 21 24 16 11 8 7 28 21 14 22 16 22 14 16 12 13 18 25 26 25 27 26 19 24 28 28 33 31 30
59 41 30 37 34 33 31 26 22 19 9 7 9 8 9 15 23 19 14 12 11 17 23 10 22 18 15 12 11 11 10 10 14 21 22 16 23 25 30 29 27 31 32 31 38
67 45 46 47 37 36 36 35 32 22 17 17 11 8 8 12 23 24 17 20 25 18 16 13 29 25 24 11 10 10 10 10 10 11 17 16 18 26 18 32 32 32 32 32 30
56 51 54 54 42 38 32 28 21 18 16 13 13 9 9 8 12 12 9 13 18 27 22 20 26 36 28 18 16 18 15 13 12 12 14 19 26 25 30 31 32 30 28 31 30